Location: Zagreb
(45.8000°N, 16.0000°E)
Time: 00:55:36
(UTC+01:00)

Transit 2A Rocket - Pass Details

Date: 08 October 2020
Orbit: 586 x 916 km, 66.7° (Epoch: 28 October)

Event Time Altitude Azimuth Distance (km) Brightness Sun altitude
Rises 15:00:39 0° 197° (SSW) 3,510 9.4 29.7°
Reaches altitude 10° 15:03:11 10° 193° (SSW) 2,590 8.9 29.4°
Maximum altitude 15:09:07 57° 116° (ESE) 1,075 6.1 28.7°
Drops below altitude 10° 15:15:02 10° 40° (NE) 2,580 7.3 28.0°
Sets 15:17:32 0° 37° (NE) 3,496 7.9 27.7°
